Change the Weather History Date:

Monday, June 9, 2014

  Actual Average Record
Temperature  
Mean Temperature 74 °F 75 °F  
Max Temperature 84 °F 86 °F 95 °F (2008)
Min Temperature 63 °F 63 °F 53 °F (2000)
Cooling Degree Days 9 10  
Month to date cooling degree days 98 80  
Year to date cooling degree days 299 248  
Since 1 June cooling degree days 98 80  
Growing Degree Days 24 (Base 50)    
Moisture  
Dew Point 67 °F    
Average Humidity 83    
Maximum Humidity 100    
Minimum Humidity 65    
Precipitation  
Precipitation 0.04 in 0.13 in 0.21 in (2013)
Month to date precipitation 1.31 1.22  
Year to date precipitation 25.80 24.09  
Sea Level Pressure  
Sea Level Pressure 29.90 in    
Wind  
Wind Speed 3 mph (NNW)    
Max Wind Speed 10 mph    
Max Gust Speed 14 mph    
Visibility 10 miles    
Events Thunderstorm    
T = Trace of Precipitation, MM = Missing Value Source: NWS Daily Summary

Daily Weather History Graph

Daily Weather History Graph

Search for Another Location

Airport or City:

Trip Planner

Search our weather history database for the weather conditions in past years. The results will help you decide how hot, cold, wet, or windy it might be!

Date:

Astronomy

Jun. 09, 2014 Rise Set
Actual Time 6:28 AM EDT 8:51 PM EDT
Civil Twilight 5:58 AM EDT 9:21 PM EDT
Nautical Twilight 5:22 AM EDT 9:57 PM EDT
Astronomical Twilight 4:43 AM EDT 10:36 PM EDT
Moon 5:20 PM EDT (6/9) 3:45 AM EDT (6/9)
Length of Visible Light 15h 22m
Length of Day
14h 23m
Waxing Gibbous, 85% of the Moon is Illuminated
Jun 9
Waxing Gibbous
Jun 13
Full
Jun 19
Last Quarter
Jun 27
New
Jul 5
First Quarter

Hourly Weather History & Observations

Time (EDT) Temp. Heat Index Dew Point Humidity Pressure Visibility Wind Dir Wind Speed Gust Speed Precip Events Conditions
12:53 AM 69.1 °F - 68.0 °F 96% 29.91 in 10.0 mi North 3.5 mph - N/A   Clear
1:53 AM 69.1 °F - 66.9 °F 93% 29.89 in 10.0 mi North 4.6 mph - N/A   Clear
2:53 AM 66.9 °F - 66.0 °F 97% 29.89 in 10.0 mi NNW 3.5 mph - N/A   Clear
3:53 AM 66.9 °F - 64.0 °F 90% 29.88 in 10.0 mi NNW 6.9 mph - N/A   Clear
4:53 AM 66.0 °F - 63.0 °F 90% 29.89 in 10.0 mi WNW 3.5 mph - N/A   Mostly Cloudy
5:53 AM 64.9 °F - 63.0 °F 93% 29.90 in 10.0 mi NNW 3.5 mph - N/A   Mostly Cloudy
6:53 AM 63.0 °F - 62.1 °F 97% 29.90 in 8.0 mi Calm Calm - N/A   Clear
7:53 AM 66.0 °F - 64.0 °F 93% 29.91 in 8.0 mi Calm Calm - N/A   Clear
8:35 AM 70.0 °F - 62.1 °F 76% 29.97 in 10.0 mi NW 9.2 mph - N/A Thunderstorm Mostly Cloudy
8:53 AM 68.0 °F - 62.1 °F 81% 29.94 in 10.0 mi East 3.5 mph - N/A   Scattered Clouds
9:53 AM 69.1 °F - 64.0 °F 84% 29.94 in 10.0 mi Calm Calm - 0.04 in   Clear
10:53 AM 71.6 °F - 66.2 °F 83% 29.96 in 10.0 mi NNW 3.5 mph - N/A   Clear
11:53 AM 73.0 °F - 66.0 °F 79% 29.91 in 10.0 mi Variable 3.5 mph - N/A   Partly Cloudy
12:53 PM 75.9 °F - 68.0 °F 76% 29.92 in 10.0 mi South 4.6 mph - N/A   Clear
1:53 PM 75.9 °F - 68.0 °F 76% 29.92 in 10.0 mi Variable 3.5 mph - N/A   Mostly Cloudy
2:06 PM 77.0 °F - 68.0 °F 74% 29.94 in 10.0 mi WSW 6.9 mph - N/A   Mostly Cloudy
2:34 PM 77.0 °F - 66.9 °F 71% 29.93 in 10.0 mi Variable 5.8 mph - N/A   Scattered Clouds
3:53 PM 80.6 °F 83.9 °F 69.8 °F 70% 29.91 in 10.0 mi Calm Calm - N/A   Clear
4:53 PM 81.0 °F 84.4 °F 70.0 °F 69% 29.87 in 10.0 mi North 5.8 mph - N/A   Mostly Cloudy
5:53 PM 82.0 °F 85.9 °F 70.0 °F 67% 29.86 in 10.0 mi NW 5.8 mph - N/A   Clear
6:53 PM 82.0 °F 85.9 °F 70.0 °F 67% 29.85 in 10.0 mi Variable 3.5 mph - N/A   Clear
7:53 PM 81.0 °F 84.4 °F 70.0 °F 69% 29.86 in 10.0 mi East 3.5 mph - N/A   Clear
8:53 PM 75.0 °F - 72.0 °F 90% 29.87 in 10.0 mi Calm Calm - N/A   Clear
9:53 PM 73.0 °F - 71.1 °F 93% 29.88 in 10.0 mi Calm Calm - N/A   Clear
10:53 PM 72.0 °F - 71.1 °F 97% 29.90 in 9.0 mi Calm Calm - N/A   Clear
11:53 PM 71.1 °F - 70.0 °F 96% 29.91 in 5.0 mi Calm Calm - N/A   Clear